sat.trackr.live / text

‹ back to catalog

STARLINK-30485

NORAD 57920 · 2023-147H

PAYLOAD ACTIVE UNKNOWN

§ Identity

Operator
Country
US
Launch date
2023-09-24
Launch site
AFETR
Launch vehicle
Mass (kg)
RCS (m²)

Purposes: comms

External: N2YO · Heavens-Above · Gunter

§ Orbital elements

Epoch: 2026-05-24T13:53:36.146112Z

Period
94.27 min
Inclination
43.0033°
Eccentricity
0.0001754
Mean motion
15.27551400 rev/d
Perigee alt
481.9 km
Apogee alt
484.3 km
Semi-major
6,861.3 km
B*
-6.5055e-5
RAAN
256.6856°
Arg perigee
266.6694°
Mean anomaly
93.3957°
Rev number
14,823

§ Raw data

STARLINK-304851 57920U 23147H   26144.57889058 -.00002050  00000+0 -65055-4 0  99902 57920  43.0033 256.6856 0001754 266.6694  93.3957 15.27551400148236

JSON: /api/v1/satellites/57920 · /tle

For live sub-satellite position, see the globe view (requires WebGL).

§ Visibility from observer

Set your observer location to see the next 7 days of passes ≥ 10°. The values pass through the URL so the page stays shareable.

No JS? Fill the form by hand. The geolocation button needs JavaScript.